Location: Unspecified
(0.0000°N, 0.0000°E)
Time: 01:20:48
(UTC+00:00)

Transit 4A - Pass Details

Date: 02 October 2020
Orbit: 862 x 982 km, 66.8° (Epoch: 25 October)

Event Time Altitude Azimuth Distance (km) Brightness Sun altitude
Rises 19:51:50 0° 210° (SSW) 3,467 11.3 -30.6°
Reaches altitude 10° 19:54:22 10° 216° (SW) 2,539 10.6 -31.2°
Maximum altitude 20:00:01 50° 290° (WNW) 1,137 8.5 -32.6°
Enters shadow 20:01:02 45° 321° (NW) 1,213 8.6 -32.9°
